NOAA 20 (43013 NORAD) Tracking and Keplerian Element Data

This shows tracking and keplerian element data for the satellite.

Feedback or suggestion? Click here.




ElementValue
Catalog43013
NameNOAA 20
Epoch Orbit19984
Epoch Day269.96346762
Epoch Year2021
RAAN207.0832
Inclination98.7254
Eccentricity0.000142
Argument of Perigee82.4146
Mean Anonmoly277.7192
Mean Motion14.19554783
Decay Rate1.9E-07
L11 43013U 17073A 21269.96346762 .00000019 00000-0 29638-4 0 9994
L22 43013 98.7254 207.0832 0001420 82.4146 277.7192 14.19554783199845

Live tracking and technical data element details for NOAA 20 (NORAD 43013). NOAA 20 can be tracked NOW for your location showing map with azimuth and elevation plus other details from your city location.

Track the satellite on the map from your city or location and see movement details for azimuth, elevation, latitude, longitude, range, height, and movement on the map or in text.







IsCatalogInMostPopularTable: catalog: 43013, numindb: 760
Update: records affected: 1



GetName: 43013 NOAA 20

Hit Count: updated at: Tue, 28 Sep 2021 15:52:59 GMT